CW9792 Weather Reports


time (UTC)temp
F
wind
direction
speed
knots
gust
knots
rain 1hr
in
rain 24hr
in
rain mn
in
humidity
%
barometer
mb
20260502183538 53 338 0.0 0.0 0.00 0.00 0.00 37 1018.5
20260502183038 53 5 0.0 0.9 0.00 0.00 0.00 41 1018.6
20260502182538 54 22 0.0 0.9 0.00 0.00 0.00 40 1018.6
20260502182037 54 9 0.0 0.0 0.00 0.00 0.00 43 1018.6
20260502181539 53 360 0.0 0.0 0.00 0.00 0.00 42 1018.7
20260502181037 52 355 0.0 0.0 0.00 0.00 0.00 43 1018.8
20260502180536 51 355 0.0 0.0 0.00 0.00 0.00 42 1018.8
20260502164032 51 17 0.0 0.0 0.00 0.00 0.00 51 1019.1
20260502163533 51 5 0.0 0.0 0.00 0.00 0.00 49 1019.1
20260502163041 51 14 0.0 0.0 0.00 0.00 0.00 50 1019.2
20260502162532 51 360 0.0 0.0 0.00 0.00 0.00 48 1019.2
20260502162036 51 355 0.0 0.0 0.00 0.00 0.00 45 1019.2
20260502161532 52 348 0.0 0.0 0.00 0.00 0.00 46 1019.2
20260502161031 52 355 0.0 0.0 0.00 0.00 0.00 46 1019.1
20260502160530 53 13 0.0 0.0 0.00 0.00 0.00 46 1019.1
20260502152024 52 55 0.0 0.9 0.00 0.00 0.00 51 1019.0
20260502151548 51 48 0.0 0.9 0.00 0.00 0.00 52 1019.0
20260502151022 50 69 0.0 0.0 0.00 0.00 0.00 52 1018.9
20260502150521 50 28 0.0 0.9 0.00 0.00 0.00 54 1018.9
20260502130502 43 355 0.0 0.0 0.00 0.00 0.00 64 1018.8
20260502123559 42 349 0.0 0.0 0.00 0.00 0.00 66 1018.4
20260502123059 42 325 0.0 0.0 0.00 0.00 0.00 66 1018.4
20260502122602 41 302 0.0 0.0 0.00 0.00 0.00 66 1018.4
20260502122058 41 302 0.0 0.0 0.00 0.00 0.00 67 1018.4
20260502121557 41 299 0.0 0.0 0.00 0.00 0.00 67 1018.1
20260502121057 41 299 0.0 0.0 0.00 0.00 0.00 67 1018.1
20260502120556 41 299 0.0 0.0 0.00 0.00 0.00 67 1018.1
20260502115555 41 298 0.0 0.0 0.00 0.00 0.00 67 1017.9
20260502115055 41 299 0.0 0.0 0.00 0.00 0.00 67 1017.8
20260502114555 40 299 0.0 0.0 0.00 0.00 0.00 67 1017.8
20260502114055 40 298 0.0 0.0 0.00 0.00 0.00 68 1017.8
20260502113555 40 297 0.0 0.0 0.00 0.00 0.00 68 1017.7
20260502113056 40 297 0.0 0.0 0.00 0.00 0.00 67 1017.8
20260502112554 39 282 0.0 0.0 0.00 0.00 0.00 67 1017.8
20260502112054 39 282 0.0 0.0 0.00 0.00 0.00 67 1017.7
20260502111555 39 281 0.0 0.0 0.00 0.00 0.00 67 1017.5
20260502111053 39 281 0.0 0.0 0.00 0.00 0.00 67 1017.4
20260502110553 38 281 0.0 0.0 0.00 0.00 0.00 67 1017.4
20260502110100 38 281 0.0 0.0 0.00 0.00 0.00 67 1017.3
20260502105553 38 281 0.0 0.0 0.00 0.00 0.00 67 1017.3
20260502105052 38 305 0.0 0.0 0.00 0.00 0.00 67 1017.3
20260502104552 37 302 0.0 0.0 0.00 0.00 0.00 67 1017.3
20260502104052 37 299 0.0 0.0 0.00 0.00 0.00 66 1017.3
20260502103552 37 299 0.0 0.0 0.00 0.00 0.00 66 1017.3
20260502103101 37 299 0.0 0.0 0.00 0.00 0.00 66 1017.3
20260502102552 37 299 0.0 0.0 0.00 0.00 0.00 66 1017.1
20260502102051 37 299 0.0 0.0 0.00 0.00 0.00 66 1017.2
20260502101558 37 299 0.0 0.0 0.00 0.00 0.00 66 1017.3
20260502101050 37 299 0.0 0.0 0.00 0.00 0.00 65 1017.4
20260502100551 37 299 0.0 0.0 0.00 0.00 0.00 65 1017.4
20260502091045 38 299 0.0 0.0 0.00 0.00 0.00 64 1017.3
20260502090544 38 299 0.0 0.0 0.00 0.00 0.00 64 1017.3
20260502090110 38 299 0.0 0.0 0.00 0.00 0.00 64 1017.2
20260502071040 39 299 0.0 0.0 0.00 0.00 0.00 63 1017.5
20260502070536 39 299 0.0 0.0 0.00 0.00 0.00 63 1017.4
20260502070048 39 299 0.0 0.0 0.00 0.00 0.00 63 1017.3
20260502065535 39 299 0.0 0.0 0.00 0.00 0.00 63 1017.4
20260502065034 40 299 0.0 0.0 0.00 0.00 0.00 63 1017.3
20260502064538 40 299 0.0 0.0 0.00 0.00 0.00 63 1017.2
20260502064033 40 299 0.0 0.0 0.00 0.00 0.00 63 1017.3
20260502063532 40 299 0.0 0.0 0.00 0.00 0.00 62 1017.4
20260502063040 40 299 0.0 0.0 0.00 0.00 0.00 62 1017.3
20260502062531 41 299 0.0 0.0 0.00 0.00 0.00 62 1017.4
20260502062031 41 299 0.0 0.0 0.00 0.00 0.00 62 1017.5
20260502061530 41 299 0.0 0.0 0.00 0.00 0.00 62 1017.5
20260502061029 41 299 0.0 0.0 0.00 0.00 0.00 62 1017.5
20260502060529 41 299 0.0 0.0 0.00 0.00 0.00 62 1017.5
20260502060029 41 299 0.0 0.0 0.00 0.00 0.00 62 1017.4
20260502055529 41 299 0.0 0.0 0.00 0.00 0.00 62 1017.5
20260502055028 41 299 0.0 0.0 0.00 0.00 0.00 63 1017.5
20260502054534 40 299 0.0 0.0 0.00 0.00 0.00 63 1017.6
20260502054027 40 299 0.0 0.0 0.00 0.00 0.00 63 1017.6
20260502053527 41 299 0.0 0.0 0.00 0.00 0.00 63 1017.5
20260502053029 41 299 0.0 0.0 0.00 0.00 0.00 63 1017.6
20260502052526 41 299 0.0 0.0 0.00 0.00 0.00 63 1017.7
20260502052025 41 299 0.0 0.0 0.00 0.00 0.00 62 1017.8
20260502051524 41 299 0.0 0.0 0.00 0.00 0.00 62 1018.0
20260502051025 41 299 0.0 0.0 0.00 0.00 0.00 62 1018.1
20260502050526 42 299 0.0 0.0 0.00 0.00 0.00 61 1018.1
20260502050033 42 299 0.0 0.0 0.00 0.00 0.00 60 1018.1
20260502045520 42 299 0.0 0.0 0.00 0.00 0.00 60 1018.1
20260502045020 42 299 0.0 0.0 0.00 0.00 0.00 59 1017.9
20260502044518 42 299 0.0 0.0 0.00 0.00 0.00 59 1017.9
20260502044019 43 299 0.0 0.0 0.00 0.00 0.00 59 1018.0
20260502043517 43 299 0.0 0.0 0.00 0.00 0.00 59 1018.0
20260502043020 43 299 0.0 0.0 0.00 0.00 0.00 59 1018.0
20260502042517 43 299 0.0 0.0 0.00 0.00 0.00 58 1018.0
20260502042015 43 299 0.0 0.0 0.00 0.00 0.00 58 1018.0
20260502041514 43 299 0.0 0.0 0.00 0.00 0.00 58 1018.0
20260502041013 44 299 0.0 0.0 0.00 0.00 0.00 57 1018.1
20260502040512 44 299 0.0 0.0 0.00 0.00 0.00 56 1018.1
20260502040011 44 299 0.0 0.0 0.00 0.00 0.00 56 1018.0
20260502035511 44 299 0.0 0.0 0.00 0.00 0.00 55 1018.0
20260502035011 45 299 0.0 0.0 0.00 0.00 0.00 55 1017.9
20260502034514 45 299 0.0 0.0 0.00 0.00 0.00 55 1018.1
20260502034013 45 299 0.0 0.0 0.00 0.00 0.00 55 1018.1
20260502033512 45 299 0.0 0.0 0.00 0.00 0.00 54 1018.1
20260502033010 46 299 0.0 0.0 0.00 0.00 0.00 53 1018.1
20260502032510 46 299 0.0 0.0 0.00 0.00 0.00 52 1018.1
20260502032010 46 299 0.0 0.0 0.00 0.00 0.00 52 1018.0
20260502031510 46 299 0.0 0.0 0.00 0.00 0.00 52 1018.0
20260502031010 46 299 0.0 0.0 0.00 0.00 0.00 52 1018.1
20260502030512 45 299 0.0 0.0 0.00 0.00 0.00 54 1018.2
20260502030008 45 299 0.0 0.0 0.00 0.00 0.00 55 1018.1
20260502025508 45 299 0.0 0.0 0.00 0.00 0.00 55 1018.1
20260502025009 45 299 0.0 0.0 0.00 0.00 0.00 55 1018.1
20260502024507 46 299 0.0 0.0 0.00 0.00 0.00 54 1017.9
20260502024007 47 299 0.0 0.0 0.00 0.00 0.00 51 1017.9
20260502023507 48 299 0.0 0.0 0.00 0.00 0.00 51 1017.8
20260502023007 48 299 0.0 0.0 0.00 0.00 0.00 50 1017.7
20260502022507 48 299 0.0 0.0 0.00 0.00 0.00 48 1017.7
20260502022011 48 299 0.0 0.0 0.00 0.00 0.00 47 1017.8
20260502021507 48 299 0.0 0.0 0.00 0.00 0.00 47 1017.8
20260502021007 49 299 0.0 0.0 0.00 0.00 0.00 48 1017.7
20260502020505 50 299 0.0 0.0 0.00 0.00 0.00 44 1017.7
20260502020005 50 299 0.0 0.0 0.00 0.00 0.00 42 1017.7
20260502015504 50 299 0.0 0.0 0.00 0.00 0.00 42 1017.6
20260502015005 50 299 0.0 0.0 0.00 0.00 0.00 43 1017.6
20260502014502 50 299 0.0 0.0 0.00 0.00 0.00 42 1017.5
20260502014002 50 299 0.0 0.0 0.00 0.00 0.00 42 1017.3
20260502013501 51 299 0.0 0.0 0.00 0.00 0.00 41 1017.2
20260502013108 50 300 0.0 0.0 0.00 0.00 0.00 41 1017.2
20260502012600 51 305 0.0 0.0 0.00 0.00 0.00 42 1017.0
20260502012059 51 305 0.0 0.0 0.00 0.00 0.00 39 1016.9
20260502011559 51 305 0.0 0.0 0.00 0.00 0.00 39 1016.8
20260502011056 51 305 0.0 0.0 0.00 0.00 0.00 39 1016.6
20260502010556 51 305 0.0 0.0 0.00 0.00 0.00 40 1016.5
20260502010054 53 305 0.0 0.0 0.00 0.00 0.00 37 1016.4
20260502005554 53 305 0.0 0.0 0.00 0.00 0.00 34 1016.4
20260502005054 53 305 0.0 0.0 0.00 0.00 0.00 34 1016.4
20260502004556 53 305 0.0 0.0 0.00 0.00 0.00 33 1016.2
20260502004054 54 346 0.0 0.0 0.00 0.00 0.00 33 1016.1
20260502003552 54 346 0.0 0.0 0.00 0.00 0.00 33 1016.0
20260502003054 55 346 0.0 0.0 0.00 0.00 0.00 33 1015.9
20260502002555 55 346 0.0 0.0 0.00 0.00 0.00 33 1016.0
20260502002051 55 302 0.0 0.0 0.00 0.00 0.00 32 1015.9
20260502001613 56 336 0.0 0.0 0.00 0.00 0.00 32 1015.9
20260502001052 56 340 0.0 0.0 0.00 0.00 0.00 31 1015.9
20260502000551 56 331 0.0 0.0 0.00 0.00 0.00 31 1015.8
20260502000105 56 342 0.0 0.0 0.00 0.00 0.00 31 1015.7
20260501235553 56 334 0.0 0.0 0.00 0.00 0.00 34 1015.6
20260501235050 57 351 0.0 0.0 0.00 0.00 0.00 33 1015.5
20260501234550 57 343 0.0 0.0 0.00 0.00 0.00 34 1015.3
20260501234050 57 11 0.0 0.0 0.00 0.00 0.00 31 1015.1
20260501233550 58 347 0.0 0.0 0.00 0.00 0.00 33 1015.0
20260501233051 58 346 0.0 0.0 0.00 0.00 0.00 33 1014.9
20260501232550 58 331 0.0 0.0 0.00 0.00 0.00 34 1014.9
20260501232051 58 331 0.0 0.0 0.00 0.00 0.00 32 1014.8
20260501231549 58 321 0.0 0.0 0.00 0.00 0.00 32 1014.9
20260501231050 58 309 0.0 0.0 0.00 0.00 0.00 33 1014.9
20260501230549 58 302 0.0 0.0 0.00 0.00 0.00 32 1015.0
20260501230048 58 313 0.0 0.0 0.00 0.00 0.00 31 1015.1
20260501225549 58 349 0.0 0.0 0.00 0.00 0.00 29 1015.1
20260501225047 58 323 0.0 0.0 0.00 0.00 0.00 29 1015.0
20260501224605 57 347 0.0 0.0 0.00 0.00 0.00 29 1015.1
20260501224047 58 355 0.0 0.0 0.00 0.00 0.00 28 1015.1
20260501223547 58 5 0.0 0.0 0.00 0.00 0.00 28 1015.0
20260501223047 58 351 0.0 0.0 0.00 0.00 0.00 28 1015.0
20260501222550 57 344 0.0 0.0 0.00 0.00 0.00 30 1015.0
20260501222047 57 346 0.0 0.0 0.00 0.00 0.00 30 1015.0
20260501221547 58 348 0.0 0.0 0.00 0.00 0.00 29 1014.9
20260501221046 58 344 0.0 0.0 0.00 0.00 0.00 29 1015.0
20260501220546 59 344 0.0 0.0 0.00 0.00 0.00 29 1015.0
20260501220048 59 344 0.0 0.0 0.00 0.00 0.00 30 1015.0
20260501215547 59 350 0.0 0.0 0.00 0.00 0.00 29 1015.2
20260501215046 59 12 0.0 0.0 0.00 0.00 0.00 31 1015.1
20260501214546 59 345 0.0 0.0 0.00 0.00 0.00 31 1015.1
20260501214046 59 329 0.0 0.0 0.00 0.00 0.00 29 1015.0
20260501213545 59 304 0.0 0.0 0.00 0.00 0.00 27 1015.0
20260501213047 59 306 0.0 0.0 0.00 0.00 0.00 30 1015.0
20260501212545 58 309 0.0 0.0 0.00 0.00 0.00 31 1015.1
20260501212045 58 327 0.0 0.0 0.00 0.00 0.00 32 1015.1
20260501211545 58 299 0.0 0.0 0.00 0.00 0.00 31 1015.1
20260501211045 59 336 0.0 0.0 0.00 0.00 0.00 34 1015.1
20260501210544 59 343 0.0 0.0 0.00 0.00 0.00 32 1015.1
20260501210043 60 338 0.0 0.0 0.00 0.00 0.00 32 1015.2
20260501205543 59 335 0.0 0.0 0.00 0.00 0.00 33 1015.1
20260501205044 58 347 0.0 0.0 0.00 0.00 0.00 32 1015.1
20260501204544 59 5 0.0 0.0 0.00 0.00 0.00 33 1015.1
20260501204043 59 330 0.0 0.0 0.00 0.00 0.00 32 1015.2
20260501203543 60 355 0.0 0.0 0.00 0.00 0.00 33 1015.3
20260501203043 60 300 0.0 0.0 0.00 0.00 0.00 31 1015.3
20260501202543 60 19 0.0 0.0 0.00 0.00 0.00 34 1015.4
20260501202043 60 23 0.0 0.0 0.00 0.00 0.00 33 1015.3
20260501201543 60 308 0.0 0.0 0.00 0.00 0.00 28 1015.3
20260501201042 61 335 0.0 0.0 0.00 0.00 0.00 29 1015.4
20260501200542 61 320 0.0 0.0 0.00 0.00 0.00 29 1015.4
20260501200047 60 288 0.0 0.0 0.00 0.00 0.00 27 1015.5
20260501195541 60 315 0.0 0.0 0.00 0.00 0.00 27 1015.6
20260501195041 60 333 0.0 0.0 0.00 0.00 0.00 30 1015.5
20260501194553 60 355 0.0 0.0 0.00 0.00 0.00 26 1015.5
20260501194039 61 343 0.0 0.0 0.00 0.00 0.00 30 1015.8
20260501193544 60 286 0.0 0.0 0.00 0.00 0.00 27 1015.7
20260501193042 58 308 0.0 0.0 0.00 0.00 0.00 29 1015.8
20260501192542 58 5 0.0 0.0 0.00 0.00 0.00 28 1015.8
20260501192042 58 349 0.0 0.0 0.00 0.00 0.00 32 1016.0
20260501191546 58 349 0.0 0.0 0.00 0.00 0.00 30 1015.8
20260501191040 58 340 0.0 0.0 0.00 0.00 0.00 30 1015.9
20260501190539 58 345 0.0 0.9 0.00 0.00 0.00 27 1015.7
20260501190039 59 344 0.0 0.9 0.00 0.00 0.00 27 1015.5
20260501185537 60 343 0.0 0.0 0.00 0.00 0.00 28 1015.5
20260501185037 60 318 0.0 0.9 0.00 0.00 0.00 32 1015.5
20260501184536 60 261 0.0 0.9 0.00 0.00 0.00 31 1015.5
20260501184036 59 288 0.0 0.0 0.00 0.00 0.00 30 1015.5